Regional Weather Roundup
Issued by NWS Cleveland, OH

Home | Current Version | Previous Version | Text Only | Print | Product List | Glossary On
Versions: 1 2 3 4 5 6 7 8 9 10 11 12 13 14 15 16 17 18 19 20 21 22 23 24 25 26 27 28 29 30 31 32 33 34 35 36 37 38 39 40 41 42 43 44 45 46 47 48 49 50
000
ASUS41 KCLE 231702
RWRCLE
OHIO REGIONAL WEATHER ROUNDUP
NATIONAL WEATHER SERVICE CLEVELAND, OH
100 PM EDT SUN JUL 23 2017

NOTE: "FAIR" INDICATES FEW OR NO CLOUDS BELOW 12,000 FEET WITH NO
SIGNIFICANT WEATHER AND/OR OBSTRUCTIONS TO VISIBILITY.

OHZ001>008-015>018-024>027-034-035-043-044-231800-
   NORTHWEST OHIO

CITY           SKY/WX    TMP DP  RH WIND       PRES   REMARKS
DEFIANCE       CLOUDY   N/A N/A N/A SW6       29.81R
FINDLAY        CLOUDY    82  69  64 SW9       29.80S
TOLEDO EXPRESS PTSUNNY   78  70  76 SW12      29.79S
TOLEDO EXEC    PTSUNNY   79  71  76 SW8       29.80S
LIMA           CLOUDY    77  71  82 SW18G24   29.82S
$$

OHZ009>014-019>023-028>033-038-089-231800-
   NORTHEAST OHIO

CITY           SKY/WX    TMP DP  RH WIND       PRES   REMARKS
CLE-HOPKINS    PTSUNNY   84  71  65 W8        29.80F
CLE-LAKEFRONT  PTSUNNY   78  70  76 NW9       29.78F
CUY CO. ARPT   PTSUNNY   79  68  69 NW12      29.81S
LORAIN-ELYRIA  MOSUNNY   80  66  62 VRB6      29.80F
ASHTABULA      MOSUNNY   80  73  79 VRB3      29.80F
AKRON-CANTON   CLOUDY    81  68  64 W9        29.82S
WOOSTER        CLOUDY    79  69  71 W9        29.83S
MANSFIELD      PTSUNNY   80  69  69 VRB7      29.83S
YOUNGSTOWN     PTSUNNY   83  70  64 SW9       29.81S
$$

OHZ042-051>053-060>062-070>072-077>081-231800-
  SOUTHWEST OHIO

CITY           SKY/WX    TMP DP  RH WIND       PRES   REMARKS
CINC-COVINGTON CLOUDY    73  72  96 SE3       29.79F
CINC-LUNKEN    PTSUNNY   76  72  87 S6        29.79F
HAMILTON       PTSUNNY   77  73  87 S5        29.79F
DAYTON         LGT RAIN  74  69  85 S5        29.85F
WRIGHT-PAT AFB TSTM      73  72  94 NW7       29.86S
DAYTON GENERAL LGT RAIN  74  70  87 VRB3      29.81F
WILMINGTON     LGT RAIN  71  71 100 W10       29.85F
$$

OHZ036-037-039>041-045>050-054>059-063>069-073>076-082>088-231800-
  CENTRAL AND SOUTHEAST OHIO

CITY           SKY/WX    TMP DP  RH WIND       PRES   REMARKS
COLUMBUS       CLOUDY    77  75  93 SW8       29.84S
OSU AIRPORT    CLOUDY    76  75  97 S3        29.84F
BOLTON FIELD   CLOUDY    79  72  78 W14       29.85F
RICKENBACK AFB CLOUDY    77  72  83 W13       29.84F
NEWARK         LGT RAIN  75  72  90 SW7       29.84S FOG
MARION         CLOUDY    78  70  76 SW12      29.83S
LANCASTER      PTSUNNY   76  71  85 W12G18    29.86S
ZANESVILLE     CLOUDY    73  69  87 W5        29.86R
NEW PHILLY     NOT AVBL
$$




USA.gov is the U.S. government's official web portal to all federal, state and local government web resources and services.